Regional Weather Roundup
Issued by NWS Kansas City/Pleasant Hill, MO

Home | Current Version | Previous Version | Graphics & Text | Print | Product List | Glossary Off
Versions: 1 2 3 4 5 6 7 8 9 10 11 12 13 14 15 16 17 18 19 20 21 22 23 24 25 26 27

000
ASUS43 KEAX 050310
RWREAX

WEATHER ROUNDUP FOR EASTERN KANSAS AND NORTHWEST MISSOURI
NATIONAL WEATHER SERVICE KANSAS CITY/PLEASANT HILL MO
900 PM CST SUN DEC 04 2016

KSZ040-057-103>105-MOZ028-029-037-043-050400-
...KANSAS CITY METROPOLITAN AREA...

CITY           SKY/WX    TMP DP  RH WIND       PRES   REMARKS
K.C. INTL      CLEAR     30  28  92 S7        29.99S WCI  23
K.C. DOWNTOWN  CLEAR     37  35  92 SW3       30.01S
LEES SUMMIT    CLEAR     36  34  92 SW6       30.01R WCI  31
OLATHE - IXD   CLEAR     30  30 100 S6        30.01S WCI  24
OLATHE - OJC   CLEAR     34  33  96 SW3       30.00S
LAWRENCE       CLEAR     29  29 100 CALM      30.01R FOG

$$

MOZ001>008-011>017-020>025-030>033-038>040-044>046-053-054-050400-
...NORTHERN AND CENTRAL MISSOURI...

CITY           SKY/WX    TMP DP  RH WIND       PRES   REMARKS
ST. JOSEPH     CLEAR     31  30  96 S7        29.99S WCI  24
MOSBY          CLEAR     32  32 100 CALM      30.01S FOG
WARRENSBURG    CLEAR     34  32  93 SW5       30.02R WCI  30
WHITEMAN AFB   CLEAR     32  32 100 CALM      30.00S
CLINTON        CLEAR     36  36 100 CALM      30.02S
SEDALIA        CLEAR     37  34  89 SW7       30.02S WCI  32
WARSAW         NOT AVBL
CHILLICOTHE      N/A     31  29  92 CALM      30.00S
KIRKSVILLE     CLEAR     34  33  96 W6        29.97S WCI  29

$$

MOZ041-047>049-056>058-063>065-088>090-097-050400-
...EASTERN AND SOUTHERN MISSOURI...

CITY           SKY/WX    TMP DP  RH WIND       PRES   REMARKS
ST. LOUIS INTL CLOUDY    40  34  79 W12       30.03R WCI  33
SPIRIT OF STL  CLOUDY    40  36  86 W7        30.04R
COLUMBIA       CLEAR     35  33  92 W7        30.01S WCI  29
JEFFERSON CITY FOG       32  31  96 CALM      30.03R VSB 3/4
ROLLA          CLEAR     34  33  96 W6        30.00S WCI  29
OSAGE BEACH    CLEAR     30  30 100 CALM      30.02F FOG
SPRINGFIELD    CLEAR     30  29  96 CALM      30.01S
BRANSON        PTCLDY    36  34  93 CALM      30.02F
JOPLIN         CLEAR     31  31 100 CALM      30.02F
WEST PLAINS    CLOUDY    35  33  92 CALM      30.03S

$$

IAZ060-094-KSZ022-034>040-054-083-096-NEZ052-066-093-050400-
...KANSAS...SOUTHEAST NEBRASKA AND IOWA...

CITY           SKY/WX    TMP DP  RH WIND       PRES   REMARKS
TOPEKA         CLEAR     30  27  88 CALM      29.99F
MANHATTAN      CLEAR     31  29  92 CALM      29.98S FOG
EMPORIA        CLEAR     32  30  92 S10       29.99S WCI  24
CHANUTE        CLEAR     30  30 100 CALM      30.01F FOG
WICHITA        CLEAR     35  33  92 S7        29.99F WCI  29
OMAHA          CLEAR     33  28  81 S9        29.91S WCI  25
LINCOLN        CLEAR     32  30  92 VRB3      29.92S
FALLS CITY     CLEAR     34  32  92 S6        29.95S WCI  29
LAMONI         CLEAR     33  32  96 S7        29.93F WCI  27
DES MOINES     PTCLDY    34  32  92 SW9       29.91F WCI  27

$$





USA.gov is the U.S. government's official web portal to all federal, state and local government web resources and services.